Date,TemperatureHighF,TemperatureAvgF,TemperatureLowF,DewpointHighF,DewpointAvgF,DewpointLowF,HumidityHigh,HumidityAvg,HumidityLow,PressureMaxIn,PressureMinIn,WindSpeedMaxMPH,WindSpeedAvgMPH,GustSpeedMaxMPH,PrecipitationSumIn
2013-4-1,57,46,36,45,35,12,84,65,46,30.01,29.80,17,4,17,0.00
2013-4-2,49,37,26,22,17,12,68,46,27,30.17,30.00,14,3,14,0.00
2013-4-3,50,36,22,21,16,-2,70,47,20,30.35,30.16,15,3,15,0.00
2013-4-4,46,34,22,27,18,11,75,55,38,30.37,30.04,18,3,19,0.18
2013-4-5,63,46,34,43,31,26,82,59,32,30.07,29.86,18,3,19,0.10
2013-4-6,59,43,28,27,23,18,66,48,27,30.28,30.07,13,2,13,0.00
2013-4-7,69,55,40,45,37,24,64,51,41,30.20,29.99,28,10,28,0.00
2013-4-8,76,63,44,55,44,35,75,52,35,30.11,29.96,12,5,12,0.00
2013-4-9,83,70,53,57,51,43,75,53,39,30.14,29.99,20,6,20,0.00
2013-4-10,81,70,59,54,50,45,60,49,39,30.01,29.87,10,4,10,0.00
2013-4-11,77,69,60,55,52,48,67,56,46,29.94,29.75,15,5,15,0.00
2013-4-12,74,66,56,60,50,36,85,60,37,29.83,29.61,15,6,15,0.45
2013-4-13,70,56,43,41,34,24,69,45,24,30.00,29.83,21,4,21,0.00
2013-4-14,72,54,37,45,37,26,73,52,37,30.12,30.00,9,1,9,0.00
2013-4-15,57,54,51,50,46,40,84,76,60,30.26,30.09,12,1,12,0.10
2013-4-16,75,63,54,60,55,49,86,74,59,30.28,30.14,21,7,21,0.00
2013-4-17,82,66,56,63,58,52,88,75,50,30.24,30.13,9,1,9,0.04
2013-4-18,75,65,60,62,57,53,84,74,59,30.20,29.98,15,4,23,0.00
2013-4-19,73,64,51,62,56,37,86,75,60,29.97,29.65,21,7,30,0.49
2013-4-20,59,48,37,38,30,24,68,49,34,30.34,29.85,17,4,17,0.00
2013-4-21,56,43,30,33,28,22,74,57,39,30.54,30.33,61,2,61,0.00
2013-4-22,59,44,29,36,30,23,79,60,40,30.52,30.32,13,2,13,0.00
2013-4-23,69,51,36,48,39,27,76,65,45,30.36,30.09,9,1,9,0.00
2013-4-24,76,60,43,56,48,36,83,66,43,30.11,29.83,28,6,28,0.00
2013-4-25,66,52,39,42,33,27,70,50,31,30.33,30.06,16,3,16,0.00
2013-4-26,67,51,34,42,35,26,76,56,36,30.45,30.31,12,1,12,0.00
2013-4-27,72,55,38,47,40,31,81,58,37,30.39,30.25,12,2,12,0.00
2013-4-28,57,54,50,49,45,40,82,72,56,30.25,30.12,14,3,14,0.10
2013-4-29,65,56,50,55,50,45,86,80,69,30.13,30.00,7,1,7,0.02
2013-4-30,64,57,52,55,51,48,87,80,69,30.28,30.08,12,2,12,0.00